Starlink 30765

operational
NORAD ID: 58119 Int'l Des: 2023-162 Owner: SPXS Country: US Constellation: starlink
LEOCIRCULAR

关于 Starlink 30765

正在加载描述...

实时位置

正在加载3D地球...

即将过境

高度历史

Altitude vs Time

uPlot chart will show altitude changes over time

两行轨道根数

1 58119U 23162B 25304.50320431 .00000019 00000-0 16481-4 0 9994
2 58119 43.0013 115.3254 0001149 256.1806 103.8908 15.02535624112861
Epoch: Oct 31, 2025 • Age: 28 hours

当前状态

高度 561.3 km
速度 7.59 km/s
星下点 35.62°N, 38.04°W
发射日期 Oct 22, 2023
运行时间 2 years
类型 internet

技术详情

分类 Payload
质量 730.00 kg
干质量 700.00 kg
总质量 730.00 kg
长度 0.30 m
直径 4.10 m
跨度 29.00 m
形状 Box + pan
制造商 SPXS
平台类型 Starlink V2M
阶段状态 In Orbit
所有者/国家 SPXS/US

大型星座

Loading constellations...